Location: Ferchesar
(52.6477°N, 12.4298°E)
Time: 21:41:21
(UTC+01:00)

TIGRISAT - Pass Details

Date: 19 October 2021
Orbit: 603 x 689 km, 97.7° (Epoch: 30 November)

Event Time Altitude Azimuth Distance (km) Brightness Sun altitude
Rises 06:01:22 0° 129° (SE) 3,055 ? -16.1°
Reaches altitude 10° 06:03:54 10° 117° (ESE) 2,142 ? -15.8°
Maximum altitude 06:07:47 26° 61° (ENE) 1,341 ? -15.2°
Drops below altitude 10° 06:11:39 10° 6° (N) 2,140 ? -14.6°
Sets 06:14:10 0° 354° (N) 3,050 ? -14.2°
